Location: Newark
(11.2914°S, 14.4718°E)
Time: 11:25:21
(UTC+00:00)

S-56A Canister/Altair - Visible Passes

Search period start: 23 September 2019 00:00
Search period end: 03 October 2019 00:00
Orbit: 633 x 2499 km, 38.9° (Epoch: 21 September)

Date Brightness Start Highest point End Pass type
(mag) Time Alt. Az. Time Alt. Az. Time Alt. Az.
23 Sep 10.7 02:17:28 10° S 02:20:20 12° SSE 02:23:36 10° SE visible
23 Sep 9.9 04:17:32 10° SW 04:25:40 53° SE 04:37:44 10° ENE visible
23 Sep 9.4 17:19:35 10° N 17:24:15 18° NE 17:28:01 10° ENE visible
23 Sep 9.4 19:22:47 10° WNW 19:25:41 27° WNW 19:25:41 27° WNW visible
24 Sep 10.0 03:45:11 10° SSW 03:52:39 44° SE 04:03:34 10° ENE visible
24 Sep 7.7 18:49:37 10° NW 18:55:25 70° WNW 18:55:25 70° WNW visible
25 Sep 10.0 03:12:58 10° SSW 03:19:41 36° SE 03:29:21 10° ENE visible
25 Sep 7.6 18:16:26 10° NW 18:23:24 81° NE 18:25:10 44° ESE visible
26 Sep 10.1 02:42:00 15° SSW 02:46:48 29° SE 02:55:05 10° E visible
26 Sep 7.9 17:43:14 10° NW 17:50:45 66° NE 17:54:56 17° ESE visible
26 Sep 10.3 19:51:07 10° WSW 19:52:24 13° WSW 19:52:24 13° WSW visible
27 Sep 10.0 02:11:31 20° S 02:13:56 23° SE 02:20:44 10° E visible
27 Sep 9.0 04:10:41 10° SW 04:18:28 83° NW 04:30:29 10° NE visible
27 Sep 8.3 17:10:01 10° NW 17:18:01 54° NE 17:23:28 10° ESE visible
27 Sep 9.5 19:17:17 10° W 19:21:49 22° SW 19:22:09 21° SSW visible
28 Sep 10.3 01:41:06 18° SE 01:41:07 18° SE 01:46:17 10° ESE visible
28 Sep 8.8 03:38:34 12° SW 03:45:28 85° SE 03:56:45 10° NE visible
28 Sep 9.4 18:43:33 10° W 18:49:12 28° SW 18:51:53 19° S visible
29 Sep 10.8 01:10:45 11° ESE 01:10:45 11° ESE 01:11:33 10° ESE visible
29 Sep 8.8 03:08:14 26° SW 03:12:33 72° SE 03:22:59 10° NE visible
29 Sep 9.2 18:09:51 10° WNW 18:16:34 37° SW 18:21:28 10° SSE visible
30 Sep 8.7 02:37:57 47° S 02:39:44 60° SE 02:49:12 10° ENE visible
30 Sep 9.0 17:36:10 10° WNW 17:43:56 48° SW 17:49:18 10° SSE visible
01 Oct 9.1 02:07:43 47° ESE 02:07:43 47° ESE 02:15:25 10° ENE visible
01 Oct 9.4 04:05:12 12° WSW 04:11:44 39° NW 04:21:42 10° NNE visible
02 Oct 10.0 01:37:30 26° E 01:37:30 26° E 01:41:37 10° ENE visible
02 Oct 9.0 03:35:00 26° W 03:38:41 44° NW 03:48:21 10° NNE visible
02 Oct 10.3 18:40:01 10° WSW 18:42:34 12° SW 18:44:52 10° SSW visible
